Estación Meteorológica Peña el Pijo (Robertgarden) [ 09/28/20 21:21:56 CEST ]

Fecha Hora Presion(HPa) Temp (°C) Humedad % Rocio (°C) Viento ( m/s) Direccion Lluvia 1Hora(mm) Lluvia 24H(mm) LLuvia Total(mm)
2020-Apr-01 01:09:31 1000.200 - - - - N     39.88
2020-Apr-01 02:09:07 1000.700 - - - - N     39.88
2020-Apr-01 03:12:51 1000.300 - - - - N     39.88
2020-Apr-01 04:08:53 1000.200 - - - - N     39.88
2020-Apr-01 05:08:59 1000.000 - - - - N     39.88
2020-Apr-01 06:09:12 999.900 - - - - N     39.88
2020-Apr-01 07:09:17 1000.000 - - - - N     39.88
2020-Apr-01 08:09:31 1000.300 - - - - N     39.88
2020-Apr-01 09:09:17 1000.700 - - - - N     39.88
2020-Apr-01 10:09:30 1000.800 - - - - N     39.88
2020-Apr-01 11:09:13 1001.200 - - - - N     39.88
2020-Apr-01 12:09:27 1000.800 - - - - N     39.88
2020-Apr-01 13:08:58 1000.400 - - - - N     39.88
2020-Apr-01 14:08:57 1000.400 - - - - N     39.88
2020-Apr-01 15:09:08 1000.200 - - - - N     39.88
2020-Apr-01 16:09:07 999.700 - - - - N     39.88
2020-Apr-01 17:09:19 999.700 - - - - N     39.88
2020-Apr-01 18:09:10 999.700 - - - - N     39.88
2020-Apr-01 19:09:08 999.900 - - - - N     39.88
2020-Apr-01 20:09:24 1000.300 - - - - N     39.88
2020-Apr-01 21:09:30 1001.500 - - - - N     39.88
2020-Apr-01 22:09:03 1001.200 - - - - N     39.88
2020-Apr-01 23:09:25 1001.600 - - - - N     39.88

Temperatura Máxima:    Temperatura Mínima:
Presión Máxima:1001.600 Hpa    Presión Mínima:999.700 Hpa


Volver